Regional Weather Roundup
Issued by NWS

Home | Current Version | Previous Version | Text Only | Print | Product List | Glossary Off
Versions: 1 2 3 4 5 6 7 8 9 10 11 12 13 14 15 16 17 18 19 20 21 22 23 24 25 26 27 28 29 30 31 32 33 34 35 36 37 38 39 40 41 42 43 44 45 46 47 48 49 50

881
ASUS43 KDMX 270808
RWRIA

WEATHER ROUNDUP FOR IOWA
NATIONAL WEATHER SERVICE DES MOINES IA
300 AM CDT WED JUL 27 2016

NOTE: "FAIR" INDICATES FEW OR NO CLOUDS BELOW 12,000 FEET WITH NO
SIGNIFICANT WEATHER AND/OR OBSTRUCTIONS TO VISIBILITY.

* - THESE STATIONS ARE NOT NWS STATIONS...THUS NOT UNDER NWS
QUALITY CONTROL.  THEY ALSO DO NOT REPORT WEATHER SUCH
AS PRECIPITATION OR FOG.

IAZ001>003-012>014-020>022-031>034-043>046-270900-
   NORTHWEST IOWA

CITY           SKY/WX    TMP DP  RH WIND       PRES   REMARKS
CARROLL *      CLOUDY    66  64  94 SW5       30.01S
CHEROKEE *     CLOUDY    67  66  96 CALM      30.02R
DENISON *      CLOUDY    66  64  94 CALM      30.00F
LE MARS *      MOCLDY    70  66  88 S6        30.01F
SHELDON *      MOCLDY    68  66  94 S9        29.98F
SIOUX CITY     CLOUDY    71  67  87 S5        30.01S
SPENCER        CLOUDY    67  65  93 SW6       30.02R
STORM LAKE *   PTCLDY    66  64  94 SW5       30.03S
$$

IAZ055>058-069>071-079>083-090>094-270900-
   SOUTHWEST IOWA

CITY           SKY/WX    TMP DP  RH WIND       PRES   REMARKS
ATLANTIC *     MOCLDY    64  63  94 CALM      30.02S
CLARINDA *       N/A     64  64 100 MISG      30.03S
COUNCIL BLFS *   N/A     70  66  88 SE6       30.02S
CRESTON *      PTCLDY    66  64  94 CALM      30.04S
HARLAN  *      CLOUDY    64  64 100 CALM      30.05S
LAMONI         CLEAR     66  64  93 CALM      30.01S
RED OAK *      MOCLDY    66  64  94 CALM      30.01F
SHENANDOAH *     N/A     68  68 100 CALM      30.02S
$$

IAZ047>049-059>061-072>074-084-270900-
   CENTRAL IOWA

CITY           SKY/WX    TMP DP  RH WIND       PRES   REMARKS
AMES           CLOUDY    66  66 100 CALM      30.01F
ANKENY *         N/A    N/A N/A N/A MISG        N/A
BOONE *        PTCLDY    66  64  94 CALM      30.01R
CHARITON *       N/A    N/A N/A N/A MISG        N/A
DES MOINES     PTCLDY    73  65  75 S5        30.00S
GRINNELL*      MOCLDY    65  63  93 CALM      30.02S
KNOXVILLE *    CLEAR     66  64  94 CALM      30.00R
MARSHALLTOWN   PTCLDY    64  63  96 CALM      30.00F
NEWTON *       CLOUDY    66  64  94 CALM      30.01R
PELLA *        PTCLDY    65  64  97 CALM      30.02R
PERRY *          N/A     65  64  98 SW3       30.02R
$$

IAZ004>006-015-016-023>025-035-036-270900-
   NORTH CENTRAL IOWA

CITY           SKY/WX    TMP DP  RH WIND       PRES   REMARKS
ALGONA *         N/A     68  66  94 SW7       30.02R
ESTHERVILLE    PTCLDY    65  64  97 S5        30.00S
FORT DODGE *   CLOUDY    66  63  88 CALM      30.03R
MASON CITY     PTCLDY    66  63  90 S6        30.03S
FOREST CITY *    N/A     64  64 100 CALM      30.01S
IOWA FALLS *     N/A     65  62  90 SE3       30.02F
$$

IAZ007>011-017>019-026>030-037>042-050>054-066-270900-
   NORTHEAST IOWA

CITY           SKY/WX    TMP DP  RH WIND       PRES   REMARKS
CEDAR RAPIDS   CLOUDY    66  66 100 CALM      30.00F
CHARLES CITY * PTCLDY    66  66 100 SW3       30.02R
CLINTON *      CLEAR     65  64  97 N3        30.01S
DECORAH *      PTCLDY    68  66  94 CALM      30.00S
DUBUQUE        CLEAR     66  63  90 CALM      30.02F
MONTICELLO *   CLEAR     64  63  94 CALM      30.01S
WATERLOO       CLEAR     65  63  93 N3        30.00S
$$

IAZ064-065-067-068-078-270900-
   EAST CENTRAL IOWA

CITY           SKY/WX    TMP DP  RH WIND       PRES   REMARKS
DAVENPORT      CLEAR     65  63  93 CALM      30.01R
IOWA CITY      CLOUDY    68  65  90 CALM      30.01S
MT. PLEASANT * CLEAR     68  68 100 CALM      29.99F
MUSCATINE *    CLEAR     68  66  94 CALM      29.99S FOG
QUAD CITIES    CLEAR     68  64  87 CALM      29.99S
$$

IAZ062-063-075>077-085>089-095>099-270900-
   SOUTHEAST IOWA

CITY           SKY/WX    TMP DP  RH WIND       PRES   REMARKS
BURLINGTON     CLEAR     68  67  96 CALM      29.99S
FAIRFIELD *    PTCLDY    66  64  94 N3        29.99F
KEOKUK *       CLEAR     68  68 100 CALM      29.98S
CENTERVILLE *    N/A     63  61  94 CALM      30.03R
OTTUMWA        CLEAR     65  63  93 CALM      30.00R
WASHINGTON *   CLEAR     66  64  94 CALM      30.01S
$$

ABBREVIATIONS USED IN REMARKS
   TC - TEMPERATURES IN CELSIUS
  WCI - WIND CHILL INDEX
   HX - HEAT INDEX
  VSB - VISIBILITY
$$





USA.gov is the U.S. government's official web portal to all federal, state and local government web resources and services.